Zurück zum Katalog

USA 352

AktivMilitärVLEO
NORAD 59288·PAYLOAD·🇺🇸 United States

Gestartet Mar 21, 2024 von Wallops Flight Facility

Loading…

Nächste Überflüge (nächste 24 Stunden)

TLE

VeraltetSource: Mike McCants

Epoche: Mar 12, 2026, 18:36 UTC

1 59288U 24053A   26071.77543472 0.00005000  00000-0  91679-4 0    05
2 59288  50.0103  30.1093 0005000 140.6283 219.3715 15.48598751    09

Verfolge USA 352 in Echtzeit mit AllMySat

Download on the App Store